When you browse on this site, cookies collect data to enhance your experience and personalize the content and advertising you see.
Visit our Privacy Policy to learn more. By continuing to use the site, you agree to this use of cookies and data.
  • In Hungary
  • List of Countries
  • For 7 days
  • Water Temperature
  • Satellite Maps
  • Weather Map
  • News
  • Weather Widgets
  • user-avatar
    Login

    Hourly Weather Nacogdoches

    Today, 21 July, Sunday

    Time Temperature Precipitation Wind Pressure Humidity
    00:00 +27°C° 0 mm 2 mps 750 mmHg 84%
    01:00 +26°C° 0 mm 2 mps 750 mmHg 88%
    02:00 +26°C° 0 mm 2 mps 750 mmHg 92%
    03:00 +25°C° 0 mm 1 mps 750 mmHg 96%
    04:00 +25°C° 0 mm 1 mps 750 mmHg 96%
    05:00 +25°C° 0 mm 1 mps 751 mmHg 97%
    06:00 +25°C° 0 mm 1 mps 751 mmHg 98%
    07:00 +27°C° 0 mm 1 mps 751 mmHg 88%
    08:00 +29°C° 0 mm 1 mps 752 mmHg 78%
    09:00 +31°C° 0 mm 1 mps 752 mmHg 68%
    10:00 +33°C° 0 mm 1 mps 752 mmHg 62%
    11:00 +34°C° 0 mm 1 mps 752 mmHg 55%
    12:00 +36°C° 0 mm 1 mps 751 mmHg 48%
    13:00 +36°C° 0 mm 1 mps 751 mmHg 46%
    14:00 +37°C° 0 mm 1 mps 750 mmHg 45%
    15:00 +35°C° 0 mm 0 mps 750 mmHg 43%
    16:00 +36°C° 0 mm 1 mps 750 mmHg 49%
    17:00 +35°C° 0 mm 1 mps 750 mmHg 55%
    18:00 +33°C° 0 mm 1 mps 750 mmHg 61%
    19:00 +31°C° 0.1 mm 2 mps 750 mmHg 68%
    20:00 +29°C° 0.1 mm 2 mps 750 mmHg 76%
    21:00 +27°C° 0.1 mm 3 mps 750 mmHg 83%
    22:00 +27°C° 0 mm 3 mps 750 mmHg 86%
    23:00 +26°C° 0 mm 2 mps 750 mmHg 89%

    Tomorrow, 22 July, Monday

    Time Temperature Precipitation Wind Pressure Humidity
    00:00 +26°C° 0 mm 2 mps 750 mmHg 92%
    01:00 +25°C° 0.1 mm 1 mps 750 mmHg 93%
    02:00 +25°C° 0.1 mm 1 mps 750 mmHg 93%
    03:00 +25°C° 0.1 mm 1 mps 750 mmHg 94%
    04:00 +25°C° 0.8 mm 1 mps 751 mmHg 95%
    05:00 +25°C° 0.8 mm 1 mps 751 mmHg 95%
    06:00 +25°C° 0.8 mm 1 mps 751 mmHg 96%
    07:00 +26°C° 0 mm 1 mps 752 mmHg 93%
    08:00 +27°C° 0 mm 1 mps 752 mmHg 90%
    09:00 +27°C° 0 mm 1 mps 752 mmHg 87%
    10:00 +30°C° 0.1 mm 2 mps 752 mmHg 76%
    11:00 +32°C° 0.1 mm 2 mps 752 mmHg 65%
    12:00 +35°C° 0.1 mm 2 mps 752 mmHg 55%
    13:00 +36°C° 0 mm 2 mps 751 mmHg 53%
    14:00 +35°C° 0 mm 1 mps 751 mmHg 51%
    15:00 +36°C° 0 mm 1 mps 751 mmHg 49%
    16:00 +35°C° 0 mm 1 mps 750 mmHg 53%
    17:00 +34°C° 0 mm 1 mps 750 mmHg 57%
    18:00 +33°C° 0 mm 1 mps 750 mmHg 62%
    19:00 +32°C° 0.1 mm 1 mps 750 mmHg 67%
    20:00 +30°C° 0.1 mm 1 mps 750 mmHg 73%
    21:00 +28°C° 0.1 mm 1 mps 750 mmHg 78%
    22:00 +27°C° 0.3 mm 1 mps 751 mmHg 83%
    23:00 +27°C° 0.3 mm 1 mps 751 mmHg 88%

    Day after tomorrow, 23 July, Tuesday

    Time Temperature Precipitation Wind Pressure Humidity
    00:00 +26°C° 0.3 mm 2 mps 751 mmHg 92%
    01:00 +25°C° 0.2 mm 2 mps 751 mmHg 93%
    02:00 +25°C° 0.2 mm 2 mps 751 mmHg 94%
    03:00 +24°C° 0.2 mm 2 mps 751 mmHg 95%
    04:00 +24°C° 0.1 mm 2 mps 751 mmHg 95%
    05:00 +24°C° 0.1 mm 3 mps 752 mmHg 95%
    06:00 +24°C° 0.1 mm 3 mps 752 mmHg 95%
    07:00 +25°C° 0 mm 3 mps 752 mmHg 89%
    08:00 +26°C° 0 mm 3 mps 753 mmHg 83%
    09:00 +27°C° 0 mm 4 mps 753 mmHg 76%
    10:00 +28°C° 0 mm 4 mps 753 mmHg 70%
    11:00 +30°C° 0 mm 4 mps 753 mmHg 64%
    12:00 +32°C° 0 mm 4 mps 753 mmHg 58%
    13:00 +32°C° 0.1 mm 4 mps 753 mmHg 58%
    14:00 +33°C° 0.1 mm 4 mps 752 mmHg 58%
    15:00 +33°C° 0.1 mm 4 mps 752 mmHg 58%
    16:00 +31°C° 0.1 mm 3 mps 752 mmHg 62%
    17:00 +30°C° 0.1 mm 3 mps 752 mmHg 66%
    18:00 +29°C° 0.1 mm 2 mps 752 mmHg 70%
    19:00 +28°C° 0 mm 2 mps 752 mmHg 71%
    20:00 +26°C° 0 mm 2 mps 753 mmHg 72%
    21:00 +25°C° 0 mm 2 mps 753 mmHg 72%
    22:00 +24°C° 0 mm 2 mps 753 mmHg 71%
    23:00 +23°C° 0 mm 2 mps 753 mmHg 69%

    24 July, Wednesday

    Time Temperature Precipitation Wind Pressure Humidity
    00:00 +21°C° 0 mm 2 mps 753 mmHg 68%
    01:00 +20°C° 0 mm 2 mps 753 mmHg 72%
    02:00 +19°C° 0 mm 2 mps 753 mmHg 76%
    03:00 +18°C° 0 mm 2 mps 753 mmHg 80%
    04:00 +18°C° 0 mm 2 mps 754 mmHg 83%
    05:00 +18°C° 0 mm 2 mps 754 mmHg 86%
    06:00 +17°C° 0 mm 2 mps 754 mmHg 89%
    07:00 +20°C° 0 mm 2 mps 755 mmHg 81%
    08:00 +22°C° 0 mm 3 mps 755 mmHg 73%
    09:00 +25°C° 0 mm 3 mps 755 mmHg 64%
    10:00 +27°C° 0 mm 3 mps 755 mmHg 58%
    11:00 +28°C° 0 mm 3 mps 755 mmHg 53%
    12:00 +30°C° 0 mm 3 mps 754 mmHg 47%
    13:00 +30°C° 0 mm 3 mps 754 mmHg 44%
    14:00 +31°C° 0 mm 3 mps 753 mmHg 42%
    15:00 +33°C° 0 mm 3 mps 752 mmHg 40%
    16:00 +31°C° 0 mm 2 mps 752 mmHg 45%
    17:00 +30°C° 0 mm 2 mps 752 mmHg 51%
    18:00 +29°C° 0 mm 1 mps 752 mmHg 56%
    19:00 +27°C° 0 mm 1 mps 752 mmHg 60%
    20:00 +25°C° 0 mm 1 mps 752 mmHg 64%
    21:00 +23°C° 0 mm 1 mps 753 mmHg 68%
    22:00 +22°C° 0 mm 1 mps 753 mmHg 71%
    23:00 +22°C° 0 mm 1 mps 753 mmHg 74%

    25 July, Thursday

    Time Temperature Precipitation Wind Pressure Humidity
    00:00 +21°C° 0 mm 1 mps 753 mmHg 78%
    01:00 +21°C° 0 mm 1 mps 753 mmHg 82%
    02:00 +20°C° 0 mm 1 mps 753 mmHg 87%
    03:00 +20°C° 0 mm 1 mps 753 mmHg 92%
    04:00 +20°C° 0 mm 1 mps 753 mmHg 93%
    05:00 +19°C° 0 mm 1 mps 753 mmHg 95%
    06:00 +19°C° 0 mm 1 mps 754 mmHg 96%
    07:00 +22°C° 0 mm 1 mps 754 mmHg 85%
    08:00 +24°C° 0 mm 2 mps 754 mmHg 74%
    09:00 +27°C° 0 mm 2 mps 754 mmHg 63%
    10:00 +29°C° 0 mm 2 mps 754 mmHg 55%
    11:00 +30°C° 0 mm 2 mps 754 mmHg 47%
    12:00 +32°C° 0 mm 2 mps 753 mmHg 38%
    13:00 +32°C° 0 mm 2 mps 753 mmHg 36%
    14:00 +34°C° 0 mm 2 mps 752 mmHg 35%
    15:00 +34°C° 0 mm 2 mps 752 mmHg 33%
    16:00 +32°C° 0 mm 2 mps 752 mmHg 39%
    17:00 +31°C° 0 mm 2 mps 751 mmHg 45%
    18:00 +30°C° 0 mm 1 mps 751 mmHg 51%
    19:00 +28°C° 0 mm 2 mps 752 mmHg 53%
    20:00 +26°C° 0 mm 2 mps 752 mmHg 54%
    21:00 +24°C° 0 mm 2 mps 752 mmHg 56%
    22:00 +24°C° 0 mm 2 mps 752 mmHg 61%
    23:00 +23°C° 0 mm 2 mps 753 mmHg 66%

    26 July, Friday

    Time Temperature Precipitation Wind Pressure Humidity
    00:00 +22°C° 0 mm 1 mps 753 mmHg 71%
    01:00 +22°C° 0 mm 1 mps 753 mmHg 74%
    02:00 +22°C° 0 mm 1 mps 753 mmHg 77%
    03:00 +21°C° 0 mm 1 mps 753 mmHg 80%
    04:00 +21°C° 0 mm 1 mps 753 mmHg 82%
    05:00 +21°C° 0 mm 1 mps 753 mmHg 83%
    06:00 +21°C° 0 mm 1 mps 754 mmHg 85%
    07:00 +23°C° 0 mm 1 mps 754 mmHg 76%
    08:00 +26°C° 0 mm 1 mps 754 mmHg 68%
    09:00 +29°C° 0 mm 1 mps 754 mmHg 60%
    10:00 +31°C° 0 mm 1 mps 754 mmHg 52%
    11:00 +33°C° 0 mm 1 mps 754 mmHg 44%
    12:00 +35°C° 0 mm 1 mps 754 mmHg 36%
    13:00 +35°C° 0 mm 1 mps 754 mmHg 34%
    14:00 +36°C° 0 mm 1 mps 753 mmHg 33%
    15:00 +36°C° 0 mm 1 mps 753 mmHg 31%
    16:00 +34°C° 0 mm 1 mps 753 mmHg 37%
    17:00 +33°C° 0 mm 1 mps 753 mmHg 43%
    18:00 +32°C° 0 mm 1 mps 753 mmHg 48%
    19:00 +30°C° 0 mm 1 mps 753 mmHg 52%
    20:00 +28°C° 0 mm 1 mps 753 mmHg 55%
    21:00 +26°C° 0 mm 1 mps 754 mmHg 59%
    22:00 +26°C° 0 mm 1 mps 754 mmHg 68%
    23:00 +25°C° 0 mm 1 mps 754 mmHg 77%
    Show more